Regional Weather Roundup
Issued by NWS

Home | Current Version | Previous Version | Graphics & Text | Print | Product List | Glossary On
Versions: 1 2 3 4 5 6 7 8 9 10 11 12 13 14 15 16 17 18 19 20 21 22 23 24 25 26 27 28 29 30 31 32 33 34 35 36 37 38 39 40 41 42 43 44 45 46 47 48 49 50
000
ASUS43 KDTX 301310
RWRMI
MICHIGAN HOURLY REGIONAL WEATHER ROUNDUP
NATIONAL WEATHER SERVICE DETROIT/PONTIAC MI
900 AM EDT THU MAR 30 2017

NOTE: "FAIR" INDICATES FEW OR NO CLOUDS BELOW 12,000 FEET WITH NO
SIGNIFICANT WEATHER AND/OR OBSTRUCTION TO VISIBILITY.

MIZ047>049-052>055-059>063-066>070-074>076-081>083-301400-
SOUTHEAST LOWER MICHIGAN

CITY           SKY/WX    TMP DP  RH WIND       PRES   REMARKS
ADRIAN         HVY RAIN  38  35  89 E16G24    29.98R FOG     WCI  29
ALMA           MIX PCPN  36  35  97 E13       30.05F WCI  27
ANN ARBOR        N/A    N/A N/A N/A MISG      30.00F
BAD AXE        CLOUDY    38  29  71 SE9       30.13R WCI  31
CARO           SNOW      33  32  96 SE10      30.10R VSB 1/2 WCI  25
DETROIT CITY   RAIN      36  33  89 E13G23    30.06F FOG     WCI  27
DETROIT        RAIN      38  35  89 NE14      30.03F FOG     WCI  30
FLINT          LGT RAIN  35  33  92 E13       30.05F WCI  26
GROSSE ILE     LGT SNOW  37  34  89 NE17      30.01F WCI  28
HILLSDALE      RAIN      36  34  93 E17       29.94F WCI  25
HOWELL         LGT SNOW  36  33  88 E15G23    30.01F WCI  27

CITY           SKY/WX    TMP DP  RH WIND       PRES   REMARKS
JACKSON        RAIN      38  35  89 E14       29.98S FOG     WCI  30
LAMBERTVILLE   RAIN      39  36  87 E9G23     29.99F WCI  33
LANSING        LGT RAIN  37  34  89 E14G21    30.01F WCI  28
LAPEER         LGT SNOW  34  33  95 E7        30.09F WCI  28
MASON          LGT RAIN  37  36  94 E7        30.00S WCI  32
MONROE         RAIN      38  37  94 NE8       29.99F WCI  32
MT. CLEMENS    LGT SNOW  37  32  81 E17       30.06F WCI  28
PONTIAC        HVY RAIN  35  31  85 E13G21    30.03F FOG     WCI  26
PORT HOPE        N/A     36  31  82 SE14      30.13R WCI  27
PORT HURON     LGT SNOW  34  30  86 E7        30.13R WCI  28
TRI CITIES     LGT SNOW  35  33  92 E15       30.09S FOG     WCI  25
MIDLAND        MIX PCPN  37  34  90 E9        30.08F WCI  30
TROY           LGT SNOW  36  31  85 NE10      30.06F VSB 1   WCI  28
SAGINAW HB     LGT SNOW  34  32  93 E10       30.09S WCI  26
$$
MIZ043>046-050>051-056>058-064>065-071>073-077>080-301400-
SOUTHWEST LOWER MICHIGAN

CITY           SKY/WX    TMP DP  RH WIND       PRES   REMARKS
BATTLE CREEK   HVY RAIN  39  38  96 E15G24    29.95R FOG     WCI  31
BENTON HARBOR  RAIN      41  38  89 E20G35    29.86F FOG
BIG RAPIDS     LGT SNOW  34  32  93 E12G22    30.01F WCI  25
COLDWATER      FLURRIES  39  37  93 E14G21    29.94F WCI  31
FREMONT        LGT RAIN  35  33  94 E14G24    29.98F WCI  26
HOLLAND        RAIN      39  32  76 E15       29.93S WCI  31
GRAND RAPIDS   LGT RAIN  37  36  96 E17       29.97S FOG     WCI  27
IONIA          LGT RAIN  35  34  96 E13G20    30.00R WCI  26
KALAMAZOO      HVY RAIN  41  36  82 E13G22    29.96R
LUDINGTON      LGT RAIN  36  35  97 E20       29.98F WCI  25
MARSHALL       LGT SNOW  39  38  97 E15G23    29.97R WCI  30
MOUNT PLEASANT MIX PCPN  34  32  94 NE9       30.06S WCI  27
MUSKEGON       LGT RAIN  37  34  89 E18G28    29.95F WCI  27
SOUTH HAVEN    LGT SNOW  40  39  96 E16G23    29.90S WCI  32
$$
MIZ016>042-301400-
NORTHERN LOWER MICHIGAN

CITY           SKY/WX    TMP DP  RH WIND       PRES   REMARKS
ALPENA         CLOUDY    36  29  75 E12       30.18R WCI  28
BEAVER ISLAND  CLOUDY    34  29  82 E15G21    30.13S WCI  24
BELLAIRE       CLOUDY    36  27  69 NE8       30.11F WCI  30
CADILLAC       LGT SNOW  32  31  94 E9        30.03F WCI  25
CHARLEVOIX     CLOUDY    34  29  83 E13       30.14S WCI  25
FRANKFORT      DRIZZLE   36  29  76 E6        30.03F WCI  31
GAYLORD        CLOUDY    34  26  72 VRB5      30.10F WCI  30
GRAYLING       CLOUDY    34  28  80 E13       30.08F WCI  25
HARBOR SPRINGS CLOUDY    34  28  77 E14       30.14R WCI  24
HOUGHTON LAKE  CLOUDY    35  29  78 E10       30.07F WCI  27
MANISTEE       LGT RAIN  36  34  92 E13       30.00F WCI  27
OSCODA         CLOUDY    37  30  78 E7        30.15S WCI  31
PELLSTON       CLOUDY    35  27  72 E10       30.15F WCI  27
ROGERS CITY    CLOUDY    35  29  78 SE14G20   30.19F WCI  26
TRAVERSE CITY  CLOUDY    37  27  67 E7        30.07F WCI  32
$$
MIZ007>008-015-301400-
EASTERN UPPER MICHIGAN

CITY           SKY/WX    TMP DP  RH WIND       PRES   REMARKS
KINROSS        PTSUNNY   32  23  69 E13       30.17F WCI  22
MACKINAC ISLAN CLOUDY    32  28  86 E13G22    30.16R WCI  22
NEWBERRY       CLOUDY    32  24  74 E9G16     30.14F WCI  24
S. S. MARIE    MOSUNNY   35  22  58 E13G20    30.19F WCI  26
MUNISING         N/A     35  25  66 CALM      30.11F
$$
MIZ004>006-011>014-085-301400-
CENTRAL UPPER MICHIGAN

CITY           SKY/WX    TMP DP  RH WIND       PRES   REMARKS
MANISTIQUE     CLOUDY    33  29  83 E14G26    30.12F WCI  24
ESCANABA       FLURRIES  34  27  75 E8        30.10F WCI  27
MENOMINEE      LGT SNOW  34  30  86 E14       30.08S FOG     WCI  24
SAWYER-GWINN   CLOUDY    32  23  69 E5        30.09F WCI  27
$$
MIZ001>003-009>011-084-301400-
WESTERN UPPER MICHIGAN

CITY           SKY/WX    TMP DP  RH WIND       PRES   REMARKS
IRON MOUNTAIN  CLOUDY    34  22  61 E6        30.05F WCI  29
HOUGHTON       CLOUDY    33  26  75 E9        30.08F WCI  25
COPPER HARBOR    N/A     35  24  64 S8        30.12F WCI  29
IRONWOOD       CLOUDY    34  26  72 E6        30.04S WCI  29
$$

ABBREVIATIONS USED IN REMARKS
   TC - TEMPERATURE IN CELSIUS
  WCI - WIND CHILL INDEX
   HX - HEAT INDEX
  VSB - VISIBILITY





USA.gov is the U.S. government's official web portal to all federal, state and local government web resources and services.